Danville, IN

6:37 PM EST on November 20, 2017 (GMT -0500)
Vermilion County

Weather History for KDNV - October, 2012

Change the Weather History Date:

Tuesday, October 23, 2012

  Actual Average (KLAF) Record (KLAF)
Temperature  
Mean Temperature 62 °F -  
Max Temperature 65 °F 61 °F 77 °F (1992)
Min Temperature 58 °F 40 °F 23 °F (1969)
Degree Days  
Heating Degree Days 4    
Growing Degree Days 12 (Base 50)    
Moisture  
Dew Point 57 °F    
Average Humidity 80    
Maximum Humidity 94    
Minimum Humidity 61    
Precipitation  
Precipitation 1.01 in - - ()
Sea Level Pressure  
Sea Level Pressure 29.94 in    
Wind  
Wind Speed 10 mph (South)    
Max Wind Speed 16 mph    
Max Gust Speed 17 mph    
Visibility 7 miles    
Events Rain    
Averages and records for this station are not official NWS values.
T = Trace of Precipitation, MM = Missing Value Source: NWS Daily Summary

Daily Weather History Graph

Daily Weather History Graph

Search for Another Location

Airport or City:

Trip Planner

Search our weather history database for the weather conditions in past years. The results will help you decide how hot, cold, wet, or windy it might be!

Date:

Astronomy

Oct. 23, 2012 Rise Set
Actual Time 7:10 AM CDT 5:58 PM CDT
Civil Twilight 6:42 AM CDT 6:26 PM CDT
Nautical Twilight 6:10 AM CDT 6:57 PM CDT
Astronomical Twilight 5:39 AM CDT 7:29 PM CDT
Moon 2:42 PM CDT (10/23) 1:01 AM CDT (10/23)
Length of Visible Light 11h 43m
Length of Day
10h 48m
Waxing Gibbous, 67% of the Moon is Illuminated
Oct 23
Waxing Gibbous
Oct 29
Full
Nov 6
Last Quarter
Nov 13
New
Nov 20
First Quarter

Hourly Weather History & Observations

Time (CDT) Temp. Dew Point Humidity Pressure Visibility Wind Dir Wind Speed Gust Speed Precip Events Conditions
12:15 AM 64.4 °F 50.9 °F 62% 29.91 in 7.0 mi SSW 13.8 mph - N/A Rain Heavy Rain
12:35 AM 64.8 °F 51.1 °F 61% 29.91 in 7.0 mi SSW 12.7 mph - N/A Rain Rain
12:55 AM 64.4 °F 51.1 °F 62% 29.91 in 7.0 mi SSW 11.5 mph - N/A Rain Rain
1:15 AM 63.7 °F 51.3 °F 64% 29.92 in 7.0 mi SSW 9.2 mph - N/A Rain Heavy Rain
1:35 AM 63.5 °F 51.8 °F 66% 29.92 in 7.0 mi SSW 6.9 mph - N/A Rain Rain
1:55 AM 63.9 °F 51.4 °F 64% 29.92 in 7.0 mi SSW 8.1 mph - N/A Rain Heavy Rain
2:35 AM 63.5 °F 52.0 °F 66% 29.92 in 7.0 mi SSW 9.2 mph - N/A Rain Rain
2:55 AM 63.5 °F 51.8 °F 66% 29.92 in 7.0 mi SSW 11.5 mph - N/A Rain Rain
3:15 AM 63.7 °F 51.3 °F 64% 29.92 in 7.0 mi SSW 10.4 mph - N/A Rain Rain
3:35 AM 63.0 °F 51.4 °F 66% 29.92 in 7.0 mi SSW 12.7 mph - N/A Rain Rain
3:55 AM 63.1 °F 51.3 °F 65% 29.92 in 7.0 mi SSW 9.2 mph - N/A Rain Heavy Rain
4:15 AM 62.6 °F 51.4 °F 67% 29.92 in 7.0 mi SSW 9.2 mph - N/A Rain Rain
4:35 AM 62.6 °F 51.8 °F 68% 29.91 in 10.0 mi SSW 8.1 mph - N/A Rain Rain
4:55 AM 62.6 °F 51.8 °F 68% 29.90 in 10.0 mi SSW 8.1 mph - N/A Rain Heavy Rain
5:15 AM 63.3 °F 51.8 °F 66% 29.89 in 7.0 mi South 9.2 mph - N/A Rain Heavy Rain
5:35 AM 61.0 °F 53.6 °F 77% 29.92 in 10.0 mi SW 11.5 mph 17.3 mph 0.03 in Rain Light Rain
5:55 AM 60.1 °F 54.1 °F 81% 29.94 in 7.0 mi SSW 8.1 mph - 0.07 in Rain Heavy Rain
6:15 AM 59.2 °F 55.4 °F 87% 29.94 in 4.0 mi SW 16.1 mph - 0.20 in Rain Heavy Rain
6:35 AM 59.0 °F 56.5 °F 91% 29.95 in 4.0 mi SSW 8.1 mph - 0.74 in Rain Heavy Rain
6:55 AM 58.6 °F 56.5 °F 93% 29.95 in 5.0 mi SSW 3.5 mph - 0.83 in Rain Heavy Rain
7:15 AM 59.2 °F 57.6 °F 94% 29.95 in 7.0 mi SSE 5.8 mph - 0.06 in Rain Rain
7:35 AM 60.1 °F 58.5 °F 94% 29.95 in 7.0 mi South 9.2 mph - 0.09 in Rain Light Rain
8:15 AM 59.5 °F 57.2 °F 92% 29.96 in 5.0 mi SSE 6.9 mph - N/A Rain Rain
8:35 AM 59.4 °F 57.4 °F 93% 29.97 in 5.0 mi SE 6.9 mph - N/A Rain Rain
9:15 AM 59.0 °F 56.7 °F 92% 29.98 in 5.0 mi SE 9.2 mph - N/A Rain Heavy Rain
9:35 AM 59.0 °F 57.2 °F 94% 29.98 in 7.0 mi SSE 8.1 mph - N/A Rain Rain
9:55 AM 59.9 °F 56.8 °F 90% 29.98 in 7.0 mi SSE 8.1 mph - N/A Rain Light Rain
10:15 AM 60.6 °F 57.2 °F 88% 29.98 in 5.0 mi SSE 8.1 mph - N/A Rain Rain
10:35 AM 61.7 °F 57.7 °F 87% 29.97 in 5.0 mi SSE 8.1 mph - N/A Rain Rain
10:55 AM 62.8 °F 58.5 °F 86% 29.97 in 7.0 mi SSE 8.1 mph - N/A Rain Rain
11:15 AM 64.9 °F 58.3 °F 79% 29.98 in 7.0 mi South 11.5 mph - N/A Rain Rain
11:35 AM 65.1 °F 57.0 °F 75% 29.98 in 7.0 mi South 8.1 mph - N/A Rain Rain
11:55 AM 64.9 °F 56.5 °F 74% 29.98 in 7.0 mi South 11.5 mph - N/A Rain Rain
12:15 PM 64.6 °F 56.5 °F 75% 29.98 in 7.0 mi South 13.8 mph - N/A Rain Heavy Rain
12:35 PM 63.9 °F 56.3 °F 76% 29.98 in 7.0 mi South 11.5 mph - N/A Rain Rain
12:55 PM 62.2 °F 56.5 °F 81% 29.96 in 10.0 mi South 5.8 mph - N/A Rain Rain
1:15 PM 61.3 °F 58.1 °F 89% 29.96 in 10.0 mi South 10.4 mph - 0.01 in Rain Light Rain
1:35 PM 61.5 °F 58.6 °F 90% 29.95 in 10.0 mi South 8.1 mph - 0.01 in Rain Rain
1:55 PM 61.7 °F 59.2 °F 91% 29.94 in 10.0 mi South 8.1 mph - 0.02 in Rain Rain
2:15 PM 62.6 °F 60.1 °F 91% 29.94 in 7.0 mi South 10.4 mph - N/A Rain Heavy Rain
2:35 PM 62.6 °F 60.1 °F 91% 29.93 in 7.0 mi South 8.1 mph - N/A Rain Rain
2:55 PM 63.1 °F 60.8 °F 92% 29.93 in 5.0 mi South 8.1 mph - N/A Rain Rain
3:15 PM 63.7 °F 60.8 °F 90% 29.93 in 7.0 mi South 8.1 mph - N/A Rain Rain
3:35 PM 64.4 °F 60.6 °F 88% 29.93 in 7.0 mi South 10.4 mph - N/A Rain Rain
3:55 PM 64.4 °F 60.1 °F 86% 29.93 in 7.0 mi South 6.9 mph - N/A Rain Rain
4:15 PM 64.8 °F 59.9 °F 84% 29.92 in 5.0 mi South 9.2 mph - N/A Rain Rain
4:35 PM 65.1 °F 59.9 °F 83% 29.92 in 7.0 mi South 8.1 mph - N/A Rain Heavy Rain
4:55 PM 65.7 °F 60.1 °F 82% 29.92 in 7.0 mi SSE 8.1 mph - N/A Rain Rain
5:15 PM 65.7 °F 60.3 °F 83% 29.91 in 7.0 mi SSE 9.2 mph - N/A Rain Rain
5:35 PM 65.1 °F 59.0 °F 81% 29.91 in 7.0 mi South 9.2 mph - N/A Rain Rain
5:55 PM 64.8 °F 59.0 °F 82% 29.92 in 5.0 mi South 9.2 mph - N/A Rain Rain
6:15 PM 64.8 °F 59.0 °F 82% 29.92 in 7.0 mi South 10.4 mph - N/A Rain Rain
6:35 PM 64.6 °F 59.2 °F 83% 29.92 in 7.0 mi South 8.1 mph - N/A Rain Heavy Rain
6:55 PM 64.4 °F 59.0 °F 83% 29.93 in 7.0 mi South 5.8 mph - N/A Rain Heavy Rain
7:15 PM 64.4 °F 59.0 °F 83% 29.93 in 10.0 mi South 8.1 mph - N/A Rain Heavy Rain
7:35 PM 64.0 °F 59.0 °F 84% 29.93 in 7.0 mi South 8.1 mph - N/A Rain Rain
7:55 PM 63.9 °F 58.5 °F 83% 29.93 in 7.0 mi SSE 5.8 mph - N/A Rain Heavy Rain
8:15 PM 64.0 °F 58.5 °F 82% 29.93 in 7.0 mi South 8.1 mph - N/A Rain Rain
8:35 PM 64.4 °F 59.0 °F 83% 29.93 in 7.0 mi South 8.1 mph - N/A Rain Heavy Rain
8:55 PM 63.9 °F 57.9 °F 81% 29.93 in 7.0 mi South 9.2 mph - N/A Rain Rain
9:15 PM 64.4 °F 57.2 °F 77% 29.93 in 7.0 mi South 9.2 mph - N/A Rain Heavy Rain
9:35 PM 64.0 °F 56.8 °F 77% 29.93 in 7.0 mi South 9.2 mph - N/A Rain Rain
9:55 PM 65.1 °F 56.7 °F 74% 29.94 in 7.0 mi South 11.5 mph - N/A Rain Rain
10:15 PM 64.8 °F 56.8 °F 75% 29.93 in 7.0 mi South 10.4 mph - N/A Rain Rain
10:35 PM 64.6 °F 56.7 °F 75% 29.93 in 7.0 mi South 11.5 mph - N/A Rain Rain
10:55 PM 63.9 °F 56.5 °F 77% 29.93 in 7.0 mi South 11.5 mph - N/A Rain Rain
11:15 PM 63.9 °F 56.7 °F 77% 29.93 in 7.0 mi South 11.5 mph - N/A Rain Rain
11:35 PM 63.7 °F 56.7 °F 78% 29.94 in 7.0 mi South 11.5 mph - N/A Rain Heavy Rain
11:55 PM 63.7 °F 56.7 °F 78% 29.94 in 7.0 mi South 11.5 mph 16.1 mph N/A Rain Heavy Rain